| Shipment Reliability and Frequency | Volume of Goods |
|---|---|
| Avg. Shipments per Month: 3.33 | Average TEU per month: 5.00 |
| Active Months: 12 | Average TEU per Shipment: 1.50 |
| Shipment Frequency Std. Dev.: 1.15 |
| Company Name | Shipments |
|---|---|
| CUMMINS INC | 40 shipments |
| CUMMINS POWER GENERATION | 8 shipments |
| CUMMINS IN INDY REPLENISH CTR | 7 shipments |
| CUMMINS BUSINESS SERVICES | 5 shipments |
| CUMMINS ENGINE COMPANY | 4 shipments |
| CUMMINS AFTERMARKET | 3 shipments |
| CUMMINS ENGINE COMPANY INC | 2 shipments |
| CUMMINS | 1 shipments |
| CUMMINS ENGINE CO INC | 1 shipments |
| CUMMINS MEMPHIS DIST CENTRE | 1 shipments |
| CUMMINS POWER GENERATION INC | 1 shipments |
| HS Code | Shipments |
|---|---|
| 841950 Heat exchange units; not used for domestic purposes | 64 shipments |
| 848390.0 Transmission shafts (including cam and crank) and cranks; bearing housings and plain shaft bearings; gears and gearing; ball or roller screws; gear boxes and other speed changers; flywheels and pulleys; clutches and shaft couplings | 20 shipments |
| 841590 Air conditioning machines; with motor driven fan and elements for temperature control, parts thereof | 11 shipments |
| 840999 Engines; parts for internal combustion piston engines (excluding spark-ignition) | 8 shipments |
| 848390 Transmission components; toothed wheels, chain sprockets and other transmission elements presented separately; parts | 8 shipments |
| 841590.0 Air conditioning machines; comprising a motor driven fan and elements for changing the temperature and humidity, including those machines in which the humidity cannot be separately regulated | 4 shipments |
| 841099 Turbines; hydraulic water wheels and regulators therefor | 1 shipments |
| Arrival Date | Bill Of Lading | Consignee | Weight | HS Code | Description |
|---|---|---|---|---|---|
| 2026-03-24 | IILU154028524 | CUMMINS IN INDY REPLENISH CTR | 1098.17 kg | 848390.0 | AUTOMOTIVE SPARE PARTS |
| 2026-03-10 | IILU152613129 | 1279.61 kg | 848390.0 | AUTOMOTIVE SPARE PARTS . CBM | |
| 2026-02-25 | IILU152612513 | CUMMINS IN INDY REPLENISH CTR | 1263.73 kg | 841590.0 | AUTOMOTIVE PARTS |
| 2026-02-11 | IILU152539305 | CUMMINS INC | 999.73 kg | 848390.0 | AUTOMOTIVE SPARE PARTS |
| 2026-01-20 | IILU152030408 | 1652.01 kg | 841590.0 | AUTOMOTIVE PARTS | |
| 2026-01-03 | IILU152038012 | 709.88 kg | 848390.0 | AUTOMOTIVE SPARE PARTS | |
| 2025-12-23 | IILU151445010 | CUMMINS IN INDY REPLENISH CTR | 431.83 kg | 848390.0 | AUTOMOTIVE SPARE PARTS |
| 2025-12-23 | IILU151445030 | CUMMINS IN INDY REPLENISH CTR | 403.25 kg | 848390.0 | AUTOMOTIVE SPARE PARTS |
| 2025-12-23 | IILU151445021 | 156.04 kg | 848390.0 | AUTOMOTIVE SPARE PARTS | |
| 2025-12-23 | IILU151445016 | CUMMINS IN INDY REPLENISH CTR | 403.25 kg | 848390.0 | AUTOMOTIVE SPARE PARTS |
| 2025-12-09 | IILU151447801 | 239.95 kg | 848390.0 | AUTOMOTIVE SPARE PARTS | |
| 2025-11-24 | IILU150995802 | CUMMINS INC | 1106.78 kg | 848390.0 | AUTOMOTIVE SPARE PARTS |
| 2025-11-24 | IILU150995814 | 85.28 kg | 848390.0 | AUTOMOTIVE SPARE PARTS | |
| 2025-11-11 | IILU150468014 | CUMMINS INC | 845.96 kg | 848390.0 | AUTOMOTIVE SPARE PARTS |
| 2025-11-11 | IILU150468012 | CUMMINS INC | 845.96 kg | 848390.0 | AUTOMOTIVE SPARE PARTS |
| 2025-11-04 | IILU150467914 | CUMMINS IN INDY REPLENISH CTR | 997.01 kg | 848390.0 | AUTOMOTIVE SPARE PARTS |
| 2025-10-28 | IILU149528002 | CUMMINS ENGINE COMPANY INC | 414.59 kg | 848390.0 | AUTOMOTIVE SPARE PARTS HS CODE: . CBM |
| 2025-10-28 | IILU149528001 | 3184.27 kg | 848390.0 | AUTOMOTIVE SPARE PARTS HS CODE: . CBM | |
| 2025-10-13 | IILU149528208 | 568.81 kg | 848390.0 | AUTOMOTIVE SPARE PARTS . CBM | |
| 2025-10-13 | IILU149528204 | 574.71 kg | 848390.0 | AUTOMOTIVE SPARE PARTS . CBM | |
| 2025-09-09 | IILU148616004 | 453.6 kg | 841590.0 | AUTOMOTIVE PARTS HS CODE: . CBM | |
| 2025-09-09 | IILU148616005 | 220.0 kg | 841590.0 | AUTOMOTIVE PARTS HS CODE . CBM | |
| 2025-09-02 | IILU147668302 | 789.72 kg | 848390.0 | AUTOMOTIVE SPARE PARTS HS CODE: . CBM | |
| 2025-09-02 | IILU147682301 | 1381.21 kg | 848390.0 | AUTOMOTIVE SPARE PARTS . M | |
| 2025-08-11 | IILU146589805 | CUMMINS IN INDY REPLENISH CTR | 350.63 kg | 840999 | AUTOMOTIVE PARTS HS CODE: 84099900 0.96 0 CBM |
| 2025-08-04 | IILU146590022 | 237.69 kg | 840999 | AUTOMOTIVE SPARE PARTS HS CODE: 840999000. 648 CBM | |
| 2025-07-28 | IILU147919001 | CUMMINS INC | 932.15 kg | 841099 | AUTOMOTIVE PARTS HS CODE: 841099900 3.1 32 CBM |
| 2025-07-28 | IILU146587603 | CUMMINS INC | 444.07 kg | 840999 | AUTOMOTIVE SPARE PARTS HS CODE: 840999001. 584 CBM |
| 2025-07-28 | IILU146587601 | CUMMINS INC | 1138.08 kg | 840999 | AUTOMOTIVE PARTS HS CODE: 84099900 3.159CBM |
| 2025-07-07 | IILU146588004 | CUMMINS INC | 552.48 kg | 840999 | AUTOMOTIVE SPARE PARTS HS CODE: 840999002. 280 CBM |
| 2025-06-24 | IILU146588204 | CUMMINS INC | 1611.64 kg | 841590 | AUTOMOTIVE PARTS 4.992CBM |
| 2025-06-17 | IILU146588304 | CUMMINS INC | 851.41 kg | 848390 | AUTOMOTIVE SPARE PARTS |
| 2025-06-03 | IILU146041906 | CUMMINS INC | 690.83 kg | 841590 | AUTOMOTIVE PARTS |
| 2025-05-27 | IILU146042109 | CUMMINS INC | 848.23 kg | 841590 | AUTOMOTIVE PARTS |
| 2025-05-27 | IILU146067603 | CUMMINS INC | 678.59 kg | 848390 | AUTOMOTIVE SPARE PARTS 2.609 CBM |
| 2025-05-13 | IILU145528502 | CUMMINS INC | 327.05 kg | 841590 | AUTOMOTIVE PARTS |
| 2025-05-10 | IILU144898210 | 895.86 kg | 841590 | AUTOMOTIVE PARTS | |
| 2025-04-29 | IILU144516315 | 884.52 kg | 841590 | AUTOMOTIVE PARTS | |
| 2025-04-15 | IILU144514804 | 769.31 kg | 841590 | AUTOMOTIVE PARTS | |
| 2025-04-11 | IILU144529403 | 875.45 kg | 841590 | AUTOMOTIVE PARTS | |
| 2025-03-18 | IILU141828023 | 604.65 kg | 841590 | AUTOMOTIVE PARTS | |
| 2025-03-05 | IILU141828207 | CUMMINS ENGINE COMPANY INC | 393.27 kg | 841590 | AUTOMOTIVE PARTS |
| 2025-02-19 | IILU141828402 | 323.87 kg | 848390 | AUTOMOTIVE SPARE PARTS | |
| 2025-01-22 | IILU141264522 | 1150.78 kg | 840999 | AUTOMOTIVE SPARE PARTS HS CODE: 84099900 | |
| 2025-01-22 | IILU141264503 | 1643.85 kg | 840999 | AUTOMOTIVE SPARE PARTS HS CODE: 84099900 | |
| 2024-12-17 | IILU141185020 | 101.61 kg | 848390 | AUTOMOTIVE SPARE PARTS 0.348 CBM | |
| 2024-12-17 | IILU141185002 | 236.78 kg | 848390 | AUTOMOTIVE SPARE PARTS 0.720 CBM | |
| 2024-11-26 | IILU139864820 | 642.3 kg | 841590 | AUTOMOTIVE PARTS | |
| 2024-11-19 | IILU139864909 | 606.01 kg | 848390 | AUTOMOTIVE SPARE PARTS | |
| 2024-11-19 | IILU139865001 | 351.99 kg | 848390 | AUTOMOTIVE SPARE PARTS |